Location: La Cayolle
(43.2294°N, 5.4043°E)
Time: 07:00:30
(UTC+00:00)

Daily predictions for brighter satellites

Satellite Brightness Start Highest point End
(mag) Time Altitude Azimuth Time Altitude Azimuth Time Altitude Azimuth
Meteor 2-21 4.5 16:55:46 10° N 17:01:56 68° E 17:07:58 10° SSE
USA 308 4.5 17:02:04 10° NW 17:05:26 22° NNE 17:08:47 10° ENE
ATLAS 5 CENTAUR R/B 4.2 17:04:54 10° NW 17:06:47 12° NNW 17:08:45 10° N
CZ-4B R/B 1.4 17:03:42 10° NNE 17:06:51 52° E 17:09:55 10° S
Cosmos 1606 Rocket 3.5 17:07:04 10° S 17:11:23 67° E 17:15:46 10° NNE
Helios 1A Rocket 4.1 17:08:15 10° ESE 17:11:28 22° ENE 17:14:41 10° NNE
FALCON 9 DEB 3.0 17:11:20 10° SW 17:14:33 82° NNW 17:17:46 10° NE
CZ-4B R/B 3.6 17:09:34 10° S 17:15:10 72° WSW 17:20:43 10° NNW
Okean-O 3.7 17:14:19 10° ESE 17:17:55 25° ENE 17:21:31 10° NNE
AQUARIUS 4.4 17:15:21 10° S 17:19:50 76° WSW 17:24:21 10° NNW
Cosmos 1656 4.2 17:15:07 10° S 17:20:12 38° ESE 17:25:23 10° NE
SKYMED 2 4.0 17:16:58 10° NNE 17:21:04 39° E 17:25:08 10° SSE
Cosmos 1689 Rocket 2.9 17:19:40 10° NE 17:22:14 28° E 17:24:47 10° SSE
Cosmos 1400 Rocket 3.2 17:19:16 10° SSE 17:23:08 41° E 17:27:00 10° NNE
H-2A R/B 3.4 17:21:55 10° ESE 17:25:52 21° ENE 17:29:50 10° NNE
CZ-4 R/B 2.3 17:25:00 10° SE 17:28:12 25° ENE 17:31:23 10° NNE
PSLV R/B 4.4 17:25:26 10° NNE 17:29:21 38° E 17:33:13 10° SSE
Cosmos 2227 Rocket 2.6 17:24:21 10° NNW 17:29:41 40° ENE 17:34:58 10° SE
Cosmos 2058 4.1 17:27:26 10° NNE 17:30:33 21° ENE 17:33:40 10° ESE
Atlas Centaur 2 4.4 17:23:56 10° SW 17:30:36 27° SSE 17:37:23 10° ESE
Meteor 2-16 Rocket 4.4 17:24:52 10° N 17:30:57 73° E 17:37:02 10° SSE
Cosmos 1892 3.6 17:28:36 10° NNE 17:31:59 27° ENE 17:35:20 10° SE
Cosmos 1408 3.9 17:33:24 10° NNE 17:36:07 20° ENE 17:37:15 17° E
Cosmos 1244 Rocket 4.4 17:32:21 10° N 17:38:34 70° E 17:44:48 10° SSE
CZ-4C R/B 4.5 17:36:43 10° NNW 17:40:20 15° NNE 17:44:15 10° NE
Cosmos 1300 3.1 17:37:44 10° SSW 17:41:31 66° W 17:45:19 10° N
Cosmos 1953 Rocket 3.7 17:38:30 10° N 17:42:56 79° W 17:47:22 10° S
Cosmos 2058 Rocket 3.0 17:40:18 10° S 17:44:45 75° E 17:49:16 10° NNE
Cosmos 1697 Rocket 3.3 17:39:54 10° SSE 17:44:49 32° ESE 17:49:37 11° NE
IRS-1C Rocket 4.0 17:41:34 10° SSE 17:46:49 78° ENE 17:52:07 10° NNW
CZ-2D R/B 3.3 17:43:19 10° SSE 17:47:02 55° ENE 17:50:46 10° N
SL-4 R/B 3.4 17:44:31 10° NW 17:47:22 22° N 17:49:04 16° NE
SeaSat 1 3.8 17:46:27 18° ENE 17:47:46 20° NE 17:51:18 10° N
NOSS 3-3 (A) 4.3 17:44:11 10° S 17:49:27 40° ESE 17:54:18 14° NE
NOSS 3-3 (C) 4.3 17:44:15 10° S 17:49:35 40° ESE 17:54:24 15° NE
Cosmos 1346 Rocket 3.4 17:47:15 10° N 17:50:55 33° ENE 17:54:07 12° SE
USA 305 4.0 17:47:55 10° NW 17:51:44 30° NNE 17:53:27 22° ENE
Cosmos 1825 3.9 17:50:14 10° NNE 17:51:38 17° NE 17:51:38 17° NE
Cosmos 44 4.1 17:49:04 10° SW 17:53:24 47° NW 17:58:02 10° NNE
Cosmos 1315 Rocket 3.5 17:50:52 10° SSE 17:54:21 31° E 17:56:19 20° NE
USA 215 4.4 17:51:39 15° ENE 17:55:46 29° N 18:01:11 10° NW
USA 306 3.9 17:54:19 10° NW 17:58:11 32° NNE 17:59:35 26° ENE
ERS-2 4.3 17:57:11 10° N 18:00:18 27° WNW 18:03:23 10° SW
BREEZE-M R/B 4.2 17:57:41 10° WNW 18:01:31 44° NNE 18:05:18 23° ENE
ATLAS 2AS CENTAUR R/B 4.0 17:56:25 10° NNW 18:02:25 24° NNE 18:05:17 19° ENE
Cosmos 968 Rocket 3.4 18:00:03 10° NNW 18:05:15 65° ENE 18:10:22 10° SSE
Cosmos 1340 2.8 18:02:04 10° NNW 18:05:50 74° W 18:09:35 10° S
Cosmos 1980 Rocket 3.1 18:02:58 10° SSE 18:07:19 26° ESE 18:07:19 26° ESE
COSMO-SKYMED 1 3.1 18:04:52 10° N 18:09:11 62° WNW 18:13:27 10° SSW
Cosmos 2297 Rocket 2.2 18:03:59 10° NNW 18:09:42 85° WSW 18:15:21 10° SSE
MOS 1 Rocket 3.6 18:05:29 10° NNE 18:10:00 44° E 18:14:46 10° S
Aureole 3 Rocket 3.6 18:06:37 10° SSW 18:10:25 61° WNW 18:15:39 10° N
Cosmos 1076 Rocket 3.8 18:06:57 10° N 18:10:59 40° ENE 18:11:35 38° E
In-Cosmos 22 Rocket 4.2 18:06:43 10° NNW 18:12:06 81° W 18:17:34 10° S
Cosmos 2315 Rocket 4.5 18:08:22 10° SSE 18:13:49 34° E 18:19:17 10° NNE
S3M 3.8 18:08:10 10° S 18:14:12 68° E 18:20:19 10° NNE
CSL-04 Debris 4.2 18:09:04 10° SE 18:14:19 54° ENE 18:19:40 10° N
SL-08 ROCKET BODY 4.4 18:15:42 10° N 18:21:50 88° E 18:28:01 10° S
Lacrosse 5 3.8 18:18:38 10° NW 18:21:58 17° N 18:23:30 15° NNE
YAOGAN 1 2.4 18:17:44 10° SSE 18:22:04 88° ENE 18:26:25 10° NNW
Cosmos 2360 4.3 18:18:02 10° S 18:23:34 52° ESE 18:26:14 29° NE
Cosmos 1486 Rocket 4.1 18:20:24 10° NNW 18:25:45 81° WSW 18:31:03 10° SSE
Milstar 3 4.2 18:23:29 10° SW 18:28:48 24° S 18:31:53 18° SE
Cosmos 1812 Rocket 3.4 18:24:49 10° S 18:29:11 63° E 18:30:36 39° NNE
Cosmos 1455 2.0 18:26:12 10° S 18:29:58 87° E 18:31:13 41° N
CZ-2C R/B 3.3 18:26:16 10° SSE 18:32:05 83° WSW 18:37:47 10° NNW
Cosmos 1503 Rocket 3.9 18:30:21 10° NNW 18:35:35 71° ENE 18:37:12 44° SE
Cosmos 44 Rocket 3.5 18:31:27 10° SSW 18:35:27 48° SE 18:35:27 48° SE
Cosmos 2278 3.8 18:31:24 10° S 18:36:45 48° ESE 18:36:45 48° ESE
Cosmos 2219 4.2 18:34:26 10° NW 18:39:55 46° WSW 18:45:22 10° S
DMSP B5D1-3 4.4 18:35:18 10° NNE 18:40:29 88° WNW 18:45:38 10° SSW
USA 307 3.4 18:37:10 10° NW 18:40:52 49° N 18:40:52 49° N
Meteor 2-10 Rocket 3.9 18:38:04 10° SSW 18:43:22 64° WNW 18:48:30 10° N
USA 308 3.4 18:41:59 10° NW 18:45:31 49° N 18:45:31 49° N
Cosmos 1354 Rocket 3.8 18:41:52 10° NNW 18:47:09 78° ENE 18:47:53 65° SE
Cosmos 2082 3.6 18:43:00 10° NNW 18:48:47 90° WSW 18:50:46 43° SSE
Okean-O 4.3 18:50:14 10° SSW 18:54:14 33° W 18:58:15 10° NNW
Cosmos 1992 Rocket 4.5 18:50:24 10° SW 18:55:31 58° WNW 18:59:48 15° N
ARGOS 3.0 18:54:41 54° SSE 18:55:59 86° ENE 19:01:27 10° NNW
Cosmos 2369 3.8 18:54:45 10° SSW 19:00:28 73° WNW 19:03:10 32° NNE
CZ-4 R/B 3.6 18:59:57 10° SSW 19:03:10 24° W 19:06:22 10° NW
H-2A R/B 2.6 18:59:28 10° S 19:04:47 60° W 19:10:13 10° NNW
GEOS 3 Rocket 3.6 19:05:41 76° S 19:06:01 81° SW 19:11:26 10° NW
Cosmos 2227 Rocket 3.8 19:08:40 10° NW 19:13:35 31° WSW 19:18:30 10° SSW
CSL-04 Rocket 4.5 19:08:45 10° S 19:14:07 50° W 19:19:30 10° NNW
Atlas Centaur 2 3.9 19:12:06 10° WSW 19:19:28 33° S 19:20:08 33° S
Cosmos 2263 Rocket 3.5 19:14:19 10° NNW 19:17:15 29° N 19:17:15 29° N
Timation 1 Rocket 4.4 19:14:45 10° NNW 19:20:34 78° W 19:20:34 78° W
SeaSat 1 3.3 19:26:16 45° NW 19:26:16 45° NW 19:29:45 10° NNW
Cosmos 1697 Rocket 3.9 19:23:27 10° SW 19:28:40 39° WNW 19:31:25 24° N
CZ-4C R/B 3.8 19:24:41 10° NNW 19:29:36 33° NNE 19:29:36 33° NNE
NOSS 3-4 (A) 4.0 19:25:32 10° NNW 19:31:39 63° N 19:31:39 63° N
NOSS 3-4 (C) 4.0 19:25:38 10° NNW 19:31:43 62° N 19:31:43 62° N
DEBRIS 4.4 19:21:49 10° WSW 19:36:40 60° NNW 19:36:49 60° NNW
USA 215 3.8 19:39:00 48° N 19:39:00 48° N 19:44:13 10° NW
Cosmos 1980 Rocket 3.6 19:45:51 10° SW 19:49:11 33° WSW 19:49:11 33° WSW
ATLAS 2AS CENTAUR R/B 3.4 19:47:16 10° NW 19:52:43 50° NNW 19:52:43 50° NNW
Lacrosse 5 4.5 20:01:48 10° NW 20:02:41 14° NNW 20:02:41 14° NNW
